Simultaneous Nadir Overpasses (SNOs) Predictions

Prediction of SNOs between AQUA and NPP Satellite Orbit:

Table of predicted SNOs for the next 14.0 days since TLE Epoch: 1/18/2013
Index Date (AQUA) Time (AQUA) Lat,Lon (AQUA) SZA (AQUA ) Date (NPP) Time (NPP) Lat,Lon (NPP) SZA (NPP ) Distance(km) Time Diff (sec)
1 01/18/2013 23:27:30 -76.87,-109.99 63.38 01/18/2013 23:26:46 -76.88,-109.89 63.37 2.90 44
2 01/19/2013 00:16:41 77.55, 60.28 115.82 01/19/2013 00:17:15 77.55, 60.33 115.78 1.31 34
3 01/21/2013 15:43:53 -77.04, 6.54 64.11 01/21/2013 15:43:46 -77.04, 6.52 64.10 0.60 7
4 01/21/2013 16:33:04 77.71, 176.87 115.08 01/21/2013 16:34:15 77.71, 176.80 115.04 1.72 71
5 01/24/2013 07:10:56 76.87, -45.85 115.52 01/24/2013 07:10:12 76.88, -45.75 115.54 2.62 44
6 01/24/2013 08:00:08 -77.59, 124.58 65.34 01/24/2013 08:00:41 -77.59, 124.67 65.39 2.42 33
7 01/26/2013 22:40:12 -69.91,-113.05 57.74 01/26/2013 22:38:58 -70.08,-113.97 57.53 39.77 74
8 01/26/2013 23:27:17 77.14, 71.06 114.58 01/26/2013 23:27:18 77.14, 71.04 114.58 0.59 1
9 01/27/2013 00:13:41 -81.75, -61.92 75.61 01/27/2013 00:14:54 -81.16, -62.33 75.90 66.30 73
10 01/29/2013 14:54:27 -76.70, 17.69 65.57 01/29/2013 14:53:59 -76.69, 17.59 65.52 2.69 28
11 01/29/2013 15:43:30 77.74,-170.63 113.19 01/29/2013 15:44:19 77.74,-170.52 113.12 2.78 49
12 02/01/2013 06:21:29 76.58, -34.48 113.88 02/01/2013 06:20:36 76.57, -34.50 113.93 0.49 53




NCC Satellite Simultaneous Nadir Overpasses (SNOs) Prediction Service
